• Join FlightAware (Why Join?)
  • Login
  • US Flag 
12:07AM EDT


 

Airport Tracker/Info


-or-


 

Live Flight TrackerFlight Track Log ✈ N469SR ✈ 10-May-2013 ✈ KMFD - KHAO

Flight Track Log - Related Links

Times and Time Zones

All times are in EDT time to prevent confusion due to time zone crossing. See the N469SR flight status page for this flight to view local times or setup timezone preferences in your user account.

Time Position Orientation Groundspeed Altitude Reporting Facility
EDT Latitude Longitude Course Direction KTS MPH feet Rate Location/Type
01:23PM 40.8064 -82.5314 225° Southwest 88 101 2,300  Level Indianapolis Center
01:24PM 40.7858 -82.5586 225° Southwest 89 102 3,400 900 Climbing Indianapolis Center
01:25PM 40.7647 -82.5858 224° Southwest 103 119 4,200 780 Climbing Indianapolis Center
01:26PM 40.7439 -82.6142 226° Southwest 107 123 5,100 720 Climbing Indianapolis Center
01:27PM 40.7231 -82.6406 224° Southwest 103 119 5,800 420 Climbing Indianapolis Center
01:28PM 40.6981 -82.6722 224° Southwest 120 138 6,000 60 Climbing Indianapolis Center
01:29PM 40.6767 -82.7136 236° Southwest 133 153 6,000  Level Indianapolis Center
01:30PM 40.6686 -82.7653 258° West 141 162 6,000  Level Indianapolis Center
01:31PM 40.6581 -82.8242 257° West 140 161 6,000  Level Indianapolis Center
01:32PM 40.6478 -82.8756 255° West 144 166 6,000  Level Indianapolis Center
01:33PM 40.6394 -82.9317 259° West 152 175 6,000  Level Indianapolis Center
01:34PM 40.6311 -82.9819 258° West 144 166 6,000  Level Indianapolis Center
01:35PM 40.6214 -83.0314 255° West 140 161 6,000  Level Indianapolis Center
01:36PM 40.6039 -83.0758 243° Southwest 149 171 6,000  Level Indianapolis Center
01:37PM 40.5722 -83.1069 217° Southwest 142 163 6,000  Level Indianapolis Center
01:38PM 40.5450 -83.1444 226° Southwest 141 162 6,000  Level Indianapolis Center
01:39PM 40.5125 -83.1856 224° Southwest 145 167 6,000  Level Indianapolis Center
01:41PM 40.4833 -83.2222 224° Southwest 145 167 6,000  Level Indianapolis Center
01:41PM 40.4628 -83.2508 227° Southwest 145 167 6,000  Level Indianapolis Center
01:42PM 40.4536 -83.2583 212° Southwest 144 166 6,000  Level Indianapolis Center
01:42PM 40.4331 -83.2856 225° Southwest 143 165 6,000  Level Indianapolis Center
01:43PM 40.4256 -83.2953 225° Southwest 143 165 6,000  Level Indianapolis Center
01:43PM 40.4053 -83.3233 226° Southwest 142 163 6,000  Level Indianapolis Center
01:44PM 40.3964 -83.3319 216° Southwest 144 166 6,000  Level Indianapolis Center
01:44PM 40.3753 -83.3608 226° Southwest 144 166 6,000  Level Indianapolis Center
01:45PM 40.3625 -83.3747 220° Southwest 143 165 6,000  Level Indianapolis Center
01:45PM 40.3456 -83.3956 223° Southwest 142 163 6,000  Level Indianapolis Center
01:46PM 40.3339 -83.4106 224° Southwest 142 163 6,000  Level Indianapolis Center
01:47PM 40.3089 -83.4428 225° Southwest 143 165 6,000  Level Indianapolis Center
01:48PM 40.2811 -83.4778 224° Southwest 138 159 6,000  Level Indianapolis Center
01:49PM 40.2506 -83.5147 223° Southwest 135 155 6,000  Level Indianapolis Center
01:49PM 40.2328 -83.5403 228° Southwest 135 155 6,000  Level Indianapolis Center
01:50PM 40.2236 -83.5500 219° Southwest 135 155 6,000  Level Indianapolis Center
01:50PM 40.2075 -83.5697 223° Southwest 137 158 6,000  Level Indianapolis Center
01:51PM 40.1964 -83.5853 227° Southwest 136 157 6,000  Level Indianapolis Center
01:51PM 40.1797 -83.6072 225° Southwest 140 161 6,000  Level Indianapolis Center
01:52PM 40.1683 -83.6206 222° Southwest 138 159 6,000  Level Indianapolis Center
01:52PM 40.1539 -83.6422 229° Southwest 137 158 6,000  Level Indianapolis Center
01:53PM 40.1403 -83.6664 234° Southwest 138 159 6,000  Level Indianapolis Center
01:53PM 40.1281 -83.6800 220° Southwest 136 157 6,000  Level Indianapolis Center
01:54PM 40.1128 -83.7008 226° Southwest 137 158 6,000  Level Indianapolis Center
01:54PM 40.1047 -83.7125 228° Southwest 138 159 6,000  Level Indianapolis Center
01:55PM 40.0864 -83.7372 226° Southwest 137 158 6,000  Level Indianapolis Center
01:56PM 40.0614 -83.7753 229° Southwest 137 158 6,000  Level Indianapolis Center
01:56PM 40.0508 -83.7903 227° Southwest 139 160 6,000  Level Indianapolis Center
01:57PM 40.0397 -83.8181 242° Southwest 139 160 6,000  Level Indianapolis Center
01:58PM 40.0247 -83.8658 248° West 141 162 6,000  Level Indianapolis Center
01:59PM 40.0053 -83.9100 240° Southwest 141 162 6,000  Level Indianapolis Center
01:59PM 39.9889 -83.9186 202° Southwest 138 159 6,000  Level Indianapolis Center
02:00PM 39.9658 -83.9375 212° Southwest 140 161 6,000  Level Indianapolis Center
02:01PM 39.9339 -83.9631 212° Southwest 136 157 6,000  Level Indianapolis Center
02:02PM 39.9028 -83.9886 212° Southwest 134 154 6,000  Level Indianapolis Center
02:03PM 39.8719 -84.0131 211° Southwest 132 152 6,000 -60 Level Indianapolis Center
02:04PM 39.8406 -84.0372 211° Southwest 131 151 5,900 -240 Descending Indianapolis Center
02:05PM 39.8042 -84.0675 213° Southwest 133 153 5,600 -360 Descending Indianapolis Center
02:06PM 39.7717 -84.0878 206° Southwest 139 160 5,200 -360 Descending Indianapolis Center
02:07PM 39.7356 -84.1119 207° Southwest 142 163 4,900 -360 Descending Indianapolis Center
02:08PM 39.6928 -84.1431 209° Southwest 147 169 4,500 480 Descending Indianapolis Center
02:09PM 39.6606 -84.1544 195° South 146 168 6,000 -360 Climbing Indianapolis Center
02:10PM 39.6136 -84.1608 186° South 144 166 3,800 -1,320 Descending Indianapolis Center
02:11PM 39.5750 -84.1689 189° South 143 165 3,400 -360 Descending Indianapolis Center
02:12PM 39.5364 -84.1783 191° South 141 162 3,100 -240 Descending Indianapolis Center
02:13PM 39.4983 -84.1869 190° South 140 161 3,000 -60 Descending Indianapolis Center
02:15PM 39.4628 -84.1969 192° South 135 155 3,000  Level Indianapolis Center
02:16PM 39.4308 -84.2169 206° Southwest 130 150 3,000  Level Indianapolis Center
02:17PM 39.3900 -84.2378 202° Southwest 131 151 3,000  Level Indianapolis Center
02:18PM 39.3561 -84.2547 201° Southwest 131 151 3,000  Level Indianapolis Center
02:19PM 39.3211 -84.2731 202° Southwest 132 152 3,000  Level Indianapolis Center